Rotterdam, Netherlands

10:15 PM CEST on September 23, 2017 (GMT +0200)
Rotterdam

Weather History for EHRD - April, 2013

Change the Weather History Date:

Monday, April 8, 2013

  Actual Average Record
Temperature  
Mean Temperature 42 °F -  
Max Temperature 51 °F 57 °F 59 °F (2011)
Min Temperature 32 °F 42 °F 24 °F (2003)
Degree Days  
Heating Degree Days 24    
Moisture  
Dew Point 27 °F    
Average Humidity 57    
Maximum Humidity 81    
Minimum Humidity 26    
Precipitation  
Precipitation 0.00 in - - ()
Sea Level Pressure  
Sea Level Pressure 29.75 in    
Wind  
Wind Speed 9 mph ()    
Max Wind Speed 17 mph    
Max Gust Speed -    
Visibility 7.2 miles    
Events      
Averages and records for this station are not official NWS values.
T = Trace of Precipitation, MM = Missing Value Source: Averaged Metar Reports

Daily Weather History Graph

Daily Weather History Graph

Search for Another Location

Airport or City:

Trip Planner

Search our weather history database for the weather conditions in past years. The results will help you decide how hot, cold, wet, or windy it might be!

Date:

Astronomy

Apr. 08, 2013 Rise Set
Actual Time 7:01 AM CEST 8:28 PM CEST
Civil Twilight 6:26 AM CEST 9:03 PM CEST
Nautical Twilight 5:43 AM CEST 9:46 PM CEST
Astronomical Twilight 4:56 AM CEST 10:33 PM CEST
Moon 5:55 AM CEST (4/8) 6:37 PM CEST (4/8)
Length of Visible Light 14h 36m
Length of Day
13h 26m
Waning Crescent, 4% of the Moon is Illuminated
Apr 8
Waning Crescent
Apr 10
New
Apr 18
First Quarter
Apr 25
Full
May 2
Last Quarter

Hourly Weather History & Observations

Time (CEST) Temp. Windchill Dew Point Humidity Pressure Visibility Wind Dir Wind Speed Gust Speed Precip Events Conditions
12:25 AM 35.6 °F 28.6 °F 28.4 °F 75% 29.98 in 6.2 mi ENE 9.2 mph - N/A   Unknown
12:55 AM 35.6 °F 28.6 °F 28.4 °F 75% 29.95 in 6.2 mi ENE 9.2 mph - N/A   Unknown
1:25 AM 33.8 °F 27.0 °F 28.4 °F 81% 29.95 in 6.2 mi ENE 8.1 mph - N/A   Unknown
1:55 AM 33.8 °F 28.6 °F 28.4 °F 81% 29.95 in 6.2 mi ENE 5.8 mph - N/A   Unknown
2:00 AM 34 °F - 28 °F 69% 29.95 in 14 mi ENE 4.5 mph - -   Partly Cloudy
2:25 AM 35.6 °F 31.7 °F 28.4 °F 75% 29.92 in 6.2 mi NE 4.6 mph - N/A   Unknown
2:55 AM 33.8 °F 27.0 °F 26.6 °F 75% 29.92 in 6.2 mi NE 8.1 mph - N/A   Unknown
3:25 AM 33.8 °F 26.4 °F 26.6 °F 75% 29.92 in 6.2 mi NE 9.2 mph - N/A   Unknown
3:55 AM 33.8 °F 26.4 °F 26.6 °F 75% 29.89 in 6.2 mi ENE 9.2 mph - N/A   Unknown
4:25 AM 33.8 °F 27.7 °F 26.6 °F 75% 29.89 in 6.2 mi ENE 6.9 mph - N/A   Unknown
4:55 AM 35.6 °F 29.9 °F 26.6 °F 70% 29.89 in 6.2 mi NE 6.9 mph - N/A   Unknown
5:00 AM 34 °F - 27 °F 66% 29.88 in 17 mi NE 8.9 mph - -   Overcast
5:25 AM 33.8 °F 26.4 °F 26.6 °F 75% 29.86 in 6.2 mi NE 9.2 mph - N/A   Unknown
5:55 AM 33.8 °F 26.4 °F 26.6 °F 75% 29.86 in 6.2 mi ENE 9.2 mph - N/A   Unknown
6:25 AM 33.8 °F 26.4 °F 26.6 °F 75% 29.83 in 6.2 mi ENE 9.2 mph - N/A   Unknown
6:55 AM 33.8 °F 26.4 °F 26.6 °F 75% 29.83 in 6.2 mi ENE 9.2 mph - N/A   Unknown
7:25 AM 33.8 °F 25.8 °F 26.6 °F 75% 29.83 in 6.2 mi ENE 10.4 mph - N/A   Unknown
7:55 AM 33.8 °F 26.4 °F 26.6 °F 75% 29.83 in 6.2 mi ENE 9.2 mph - N/A   Unknown
8:00 AM 34 °F - 27 °F 66% 29.83 in 13 mi ENE 8.9 mph - -   Partly Cloudy
8:25 AM 33.8 °F 26.4 °F 26.6 °F 75% 29.83 in 6.2 mi ENE 9.2 mph - N/A   Unknown
8:55 AM 35.6 °F 28.0 °F 28.4 °F 75% 29.80 in 6.2 mi ENE 10.4 mph - N/A   Unknown
9:25 AM 37.4 °F 30.3 °F 30.2 °F 75% 29.80 in 6.2 mi ENE 10.4 mph - N/A   Unknown
9:55 AM 39.2 °F 32.5 °F 28.4 °F 65% 29.77 in 6.2 mi East 10.4 mph - N/A   Unknown
10:25 AM 41.0 °F 34.3 °F 28.4 °F 61% 29.77 in 6.2 mi East 11.5 mph - N/A   Unknown
10:55 AM 42.8 °F 36.2 °F 30.2 °F 61% 29.77 in 6.2 mi East 12.7 mph - N/A   Unknown
11:00 AM 42 °F - 29 °F 47% 29.78 in 14 mi East 11.2 mph - -   Mostly Cloudy
11:25 AM 42.8 °F 37.0 °F 30.2 °F 61% 29.77 in 6.2 mi East 10.4 mph - N/A   Unknown
11:55 AM 44.6 °F 38.4 °F 30.2 °F 57% 29.77 in 6.2 mi ENE 12.7 mph - N/A   Unknown
12:25 PM 46.4 °F 41.1 °F 30.2 °F 53% 29.74 in 6.2 mi East 11.5 mph - N/A   Unknown
12:55 PM 48.2 °F - 30.2 °F 50% 29.71 in 6.2 mi East 12.7 mph - N/A   Unknown
1:25 PM 50.0 °F - 28.4 °F 43% 29.71 in 6.2 mi East 12.7 mph - N/A   Unknown
1:55 PM 50.0 °F - 28.4 °F 43% 29.68 in 6.2 mi East 16.1 mph - N/A   Unknown
2:00 PM 51 °F - 28 °F 29% 29.70 in 14 mi East 15.7 mph - -   Partly Cloudy
2:25 PM 50.0 °F - 26.6 °F 40% 29.68 in 6.2 mi East 17.3 mph - N/A   Unknown
2:55 PM 50.0 °F - 28.4 °F 43% 29.68 in 6.2 mi East 16.1 mph - N/A   Unknown
3:25 PM 50.0 °F - 26.6 °F 40% 29.68 in 6.2 mi East 17.3 mph - N/A   Unknown
3:55 PM 50.0 °F - 26.6 °F 40% 29.65 in 6.2 mi East 16.1 mph - N/A   Unknown
4:25 PM 50.0 °F - 24.8 °F 37% 29.65 in 6.2 mi ESE 15.0 mph - N/A   Unknown
4:55 PM 50.0 °F - 26.6 °F 40% 29.65 in 6.2 mi East 12.7 mph - N/A   Unknown
5:00 PM 50 °F - 26 °F 26% 29.66 in 18 mi East 13.4 mph - -   Scattered Clouds
5:25 PM 50.0 °F - 26.6 °F 40% 29.65 in 6.2 mi East 12.7 mph - N/A   Unknown
5:55 PM 50.0 °F - 24.8 °F 37% 29.65 in 6.2 mi ESE 11.5 mph - N/A   Unknown
6:25 PM 50.0 °F - 24.8 °F 37% 29.62 in 6.2 mi East 10.4 mph - N/A   Unknown
6:55 PM 48.2 °F - 24.8 °F 40% 29.62 in 6.2 mi East 11.5 mph - N/A   Unknown
7:25 PM 48.2 °F - 24.8 °F 40% 29.62 in 6.2 mi East 9.2 mph - N/A   Unknown
7:55 PM 48.2 °F - 24.8 °F 40% 29.62 in 6.2 mi East 9.2 mph - N/A   Unknown
8:00 PM 48 °F - 26 °F 29% 29.64 in 22 mi East 8.9 mph - -   Partly Cloudy
8:25 PM 46.4 °F 42.9 °F 24.8 °F 43% 29.62 in 6.2 mi East 6.9 mph - N/A   Unknown
8:55 PM 46.4 °F 43.5 °F 26.6 °F 46% 29.62 in 6.2 mi East 5.8 mph - N/A   Unknown
9:25 PM 42.8 °F 40.1 °F 26.6 °F 53% 29.62 in 6.2 mi East 4.6 mph - N/A   Unknown
9:55 PM 41.0 °F 38.0 °F 28.4 °F 61% 29.62 in 6.2 mi ENE 4.6 mph - N/A   Unknown
10:25 PM 44.6 °F 40.7 °F 26.6 °F 49% 29.62 in 6.2 mi East 6.9 mph - N/A   Unknown
10:55 PM 44.6 °F 40.7 °F 24.8 °F 46% 29.62 in 6.2 mi East 6.9 mph - N/A   Unknown
11:00 PM 45 °F - 25 °F 32% 29.63 in 22 mi East 6.7 mph - -   Overcast
11:25 PM 42.8 °F 40.1 °F 28.4 °F 57% 29.62 in 6.2 mi East 4.6 mph - N/A   Unknown
11:55 PM 42.8 °F 40.1 °F 28.4 °F 57% 29.62 in 6.2 mi ENE 4.6 mph - N/A   Unknown